Torna al catalogo

ASIASAT 5

AttivoComunicazioniGEO
NORAD 35696·PAYLOAD·🇸🇭 SH

Lanciato Aug 11, 2009 da Baikonur Cosmodrome

Loading…

TLE

AggiornatoSource: Space-Track

Epoca: Sep 14, 2026, 22:50 UTC

1 35696U 09042A   26257.95146755 -.00000315  00000-0  00000-0 0  9998
2 35696   0.0055 181.6833 0001718 345.4055 269.8781  1.00273481 62616

Traccia ASIASAT 5 in tempo reale con AllMySat

Download on the App Store